Location: Newark
(12.5331°N, 56.4669°W)
Time: 00:32:07
(UTC+00:00)

LightSail 2 - Pass Details

Date: 03 February 2020
Orbit: 698 x 723 km, 24.0° (Epoch: 24 February)

Event Time Altitude Azimuth Distance (km) Brightness Sun altitude
Rises 22:14:08 0° 275° (W) 3,058 10.0 -6.9°
Reaches altitude 10° 22:16:51 10° 263° (W) 2,142 9.3 -7.6°
Maximum altitude 22:21:06 27° 206° (SSW) 1,318 7.1 -8.6°
Drops below altitude 10° 22:25:22 10° 148° (SSE) 2,153 7.5 -9.6°
Sets 22:28:07 0° 136° (SE) 3,075 8.1 -10.2°
